EW8291 Weather Reports


Display with metric or nautical units.
time (UTC)temp
F
wind
direction
speed
MPH
gust
MPH
rain 1hr
in
rain 24hr
in
rain mn
in
humidity
%
barometer
mb
20180424103105 70 301 9.0 12.0 0.00 0.01 0.01 100 1016.0
20180424102605 71 314 11.0 14.0 0.00 0.01 0.01 100 1016.0
20180424102106 72 313 8.0 12.0 0.00 0.01 0.01 100 1016.0
20180424101606 69 323 6.0 12.0 0.00 0.01 0.01 100 1016.0
20180424101106 70 336 7.0 13.0 0.00 0.01 0.01 100 1017.0
20180424100605 71 297 8.0 10.0 0.00 0.01 0.01 100 1017.0
20180424100105 71 316 3.0 7.0 0.00 0.01 0.01 100 1017.0
20180424095605 69 324 6.0 13.0 0.00 0.01 0.01 100 1018.0
20180424095106 68 319 9.0 13.0 0.00 0.01 0.01 100 1018.0
20180424094605 70 323 9.0 13.0 0.00 0.01 0.01 100 1018.0
20180424094105 69 282 10.0 13.0 0.00 0.01 0.01 100 1018.0
20180424093605 71 298 6.0 14.0 0.00 0.01 0.01 100 1018.0
20180424093106 70 282 10.0 15.0 0.00 0.01 0.01 100 1018.0
20180424092605 69 303 6.0 12.0 0.00 0.01 0.01 100 1019.0
20180424092105 70 300 7.0 12.0 0.00 0.01 0.01 100 1019.0
20180424091605 70 291 10.0 13.0 0.00 0.01 0.01 100 1019.0
20180424091105 70 297 10.0 16.0 0.00 0.01 0.01 100 1019.0
20180424090606 70 277 8.0 15.0 0.00 0.01 0.01 100 1019.0
20180424090106 69 302 9.0 12.0 0.00 0.01 0.01 100 1019.0
20180424085605 69 282 10.0 14.0 0.00 0.01 0.01 100 1019.0
20180424085106 69 294 8.0 15.0 0.00 0.01 0.01 100 1019.0
20180424084606 68 287 8.0 15.0 0.00 0.01 0.01 100 1019.0
20180424084106 68 318 8.0 16.0 0.00 0.01 0.01 100 1019.0
20180424083606 68 281 7.0 15.0 0.00 0.01 0.01 100 1019.0
20180424083107 68 274 8.0 13.0 0.00 0.01 0.01 100 1019.0
20180424082605 67 283 7.0 13.0 0.00 0.01 0.01 100 1020.0
20180424082106 68 325 10.0 15.0 0.00 0.01 0.01 100 1020.0
20180424081606 67 290 11.0 16.0 0.00 0.01 0.01 100 1020.0
20180424081106 67 292 9.0 14.0 0.00 0.01 0.01 100 1020.0
20180424080606 67 292 9.0 13.0 0.00 0.01 0.01 100 1020.0
20180424080106 66 282 8.0 15.0 0.00 0.01 0.01 100 1020.0
20180424075605 66 295 8.0 13.0 0.00 0.01 0.01 100 1020.0
20180424075105 66 313 7.0 9.0 0.00 0.01 0.01 100 1020.0
20180424074606 65 292 10.0 12.0 0.00 0.01 0.01 100 1020.0
20180424074106 64 290 8.0 13.0 0.00 0.01 0.01 100 1020.0
20180424073605 64 307 6.0 12.0 0.00 0.01 0.01 100 1020.0
20180424073105 63 295 7.0 14.0 0.00 0.01 0.01 100 1020.0
20180424072605 62 302 8.0 12.0 0.00 0.01 0.01 100 1020.0
20180424072105 62 301 7.0 10.0 0.00 0.01 0.01 100 1020.0
20180424071605 62 303 8.0 14.0 0.00 0.01 0.01 100 1020.0
20180424071105 62 300 9.0 13.0 0.00 0.02 0.01 100 1020.0
20180424070606 62 315 10.0 14.0 0.00 0.03 0.01 100 1020.0
20180424070106 63 292 9.0 15.0 0.00 0.03 0.01 100 1020.0
20180424065606 63 285 11.0 15.0 0.00 0.04 0.01 100 1020.0
20180424065105 64 318 10.0 14.0 0.00 0.05 0.01 100 1020.0
20180424064605 63 323 7.0 13.0 0.00 0.05 0.01 100 1020.0
20180424064106 63 328 5.0 13.0 0.00 0.05 0.01 100 1020.0
20180424063605 61 327 6.0 12.0 0.00 0.05 0.01 100 1020.0
20180424063105 61 305 5.0 7.0 0.00 0.05 0.01 100 1020.0
20180424062606 60 331 6.0 9.0 0.00 0.05 0.01 100 1019.0
20180424062106 60 336 4.0 7.0 0.00 0.05 0.01 100 1019.0
20180424061606 60 333 5.0 10.0 0.00 0.05 0.01 100 1019.0
20180424061105 60 310 5.0 7.0 0.00 0.05 0.01 100 1019.0
20180424060606 60 315 4.0 7.0 0.00 0.05 0.01 100 1019.0
20180424060106 59 324 3.0 7.0 0.00 0.05 0.01 100 1019.0
20180424055605 59 297 5.0 7.0 0.00 0.05 0.01 100 1020.0
20180424055106 59 307 5.0 9.0 0.00 0.05 0.01 100 1020.0
20180424054606 59 318 4.0 7.0 0.00 0.05 0.01 100 1020.0
20180424054106 59 341 5.0 8.0 0.00 0.05 0.01 100 1019.0
20180424053606 59 333 3.0 7.0 0.00 0.05 0.01 100 1019.0
20180424053105 58 338 2.0 3.0 0.00 0.05 0.01 100 1019.0
20180424052606 58 337 2.0 5.0 0.00 0.05 0.01 100 1018.0
20180424052105 58 334 2.0 5.0 0.00 0.05 0.01 100 1018.0
20180424051606 58 338 1.0 3.0 0.00 0.05 0.01 100 1018.0
20180424051105 58 22 1.0 2.0 0.00 0.05 0.01 100 1018.0
20180424050606 58 22 0.0 1.0 0.00 0.05 0.01 100 1018.0
20180424050106 57 22 1.0 3.0 0.00 0.05 0.01 100 1018.0
20180424045605 57 338 0.0 2.0 0.00 0.05 0.01 100 1017.0
20180424045105 57 338 0.0 0.0 0.00 0.05 0.01 100 1017.0
20180424044605 57 10 0.0 1.0 0.00 0.05 0.01 100 1017.0
20180424044105 57 338 1.0 2.0 0.00 0.05 0.01 100 1017.0
20180424043605 57 2 1.0 3.0 0.00 0.05 0.01 100 1017.0
20180424043106 57 346 2.0 3.0 0.00 0.05 0.01 100 1017.0
20180424042606 56 4 1.0 3.0 0.00 0.05 0.01 100 1017.0
20180424042105 56 22 2.0 3.0 0.00 0.05 0.01 100 1017.0
20180424041606 56 22 2.0 3.0 0.00 0.05 0.01 100 1017.0
20180424041105 56 22 0.0 2.0 0.00 0.05 0.01 100 1017.0
20180424040605 57 22 3.0 5.0 0.00 0.05 0.01 100 1017.0
20180424040105 57 0 2.0 3.0 0.00 0.05 0.01 100 1017.0
20180424035606 57 338 3.0 5.0 0.00 0.05 0.01 100 1017.0
20180424035105 57 338 0.0 2.0 0.00 0.05 0.01 100 1017.0
20180424034606 57 335 2.0 3.0 0.00 0.05 0.01 100 1017.0
20180424034105 57 22 0.0 3.0 0.00 0.05 0.01 100 1017.0
20180424033605 58 22 0.0 6.0 0.00 0.05 0.01 100 1017.0
20180424033106 57 321 1.0 5.0 0.00 0.05 0.01 100 1017.0
20180424032605 58 22 1.0 2.0 0.00 0.05 0.01 100 1017.0
20180424032106 58 22 0.0 0.0 0.00 0.05 0.01 100 1017.0
20180424031605 58 22 1.0 1.0 0.00 0.05 0.01 100 1017.0
20180424031105 58 22 0.0 0.0 0.00 0.05 0.01 100 1017.0
20180424030605 58 22 0.0 0.0 0.00 0.05 0.01 100 1017.0
20180424030105 58 22 0.0 0.0 0.00 0.05 0.01 100 1017.0
20180424025605 58 22 0.0 0.0 0.00 0.05 0.01 100 1017.0
20180424025106 58 356 0.0 0.0 0.00 0.05 0.01 100 1017.0
20180424024606 58 68 0.0 0.0 0.00 0.05 0.01 100 1017.0
20180424024105 58 68 0.0 0.0 0.00 0.05 0.01 100 1018.0
20180424023605 58 68 0.0 1.0 0.00 0.05 0.01 100 1018.0
20180424023105 58 68 0.0 2.0 0.00 0.05 0.01 100 1018.0
20180424022605 58 68 0.0 2.0 0.00 0.05 0.01 100 1017.0
20180424022105 58 248 0.0 1.0 0.00 0.05 0.01 100 1017.0
20180424021605 58 248 0.0 0.0 0.00 0.05 0.01 100 1017.0
20180424021105 58 248 0.0 0.0 0.00 0.05 0.01 100 1017.0
20180424020605 58 248 0.0 0.0 0.00 0.05 0.01 100 1017.0
20180424020105 59 248 0.0 2.0 0.00 0.05 0.01 100 1017.0
20180424015606 59 248 0.0 0.0 0.00 0.05 0.01 100 1018.0
20180424015105 59 248 0.0 1.0 0.00 0.05 0.01 100 1018.0
20180424014605 58 261 0.0 1.0 0.00 0.05 0.01 100 1018.0
20180424014105 58 45 0.0 2.0 0.00 0.05 0.01 100 1016.1
20180424013605 59 45 2.0 3.0 0.00 0.05 0.01 100 1016.0
20180424013105 58 32 0.0 2.0 0.00 0.05 0.01 100 1016.0
20180424012605 58 22 1.0 3.0 0.00 0.05 0.01 100 1017.9
20180424012106 58 22 1.0 1.0 0.00 0.05 0.01 100 1018.0
20180424011605 59 22 1.0 3.0 0.00 0.05 0.01 100 1018.0
20180424011105 58 22 2.0 5.0 0.00 0.05 0.01 100 1018.0
20180424010605 58 340 2.0 5.0 0.00 0.05 0.01 100 1018.0
20180424010106 58 9 2.0 5.0 0.00 0.05 0.01 100 1018.0
20180424005605 58 4 1.0 5.0 0.00 0.05 0.01 100 1017.0
20180424005106 58 22 3.0 3.0 0.01 0.05 0.01 100 1017.0
20180424004605 58 45 1.0 3.0 0.01 0.05 0.01 100 1017.0
20180424004105 58 22 3.0 3.0 0.01 0.05 0.01 100 1017.0
20180424003605 58 22 2.0 2.0 0.01 0.05 0.01 100 1017.0
20180424003105 58 3 2.0 3.0 0.01 0.05 0.01 100 1017.0
20180424002605 58 355 2.0 3.0 0.01 0.05 0.01 100 1017.0
20180424002106 58 22 3.0 3.0 0.01 0.05 0.01 100 1017.0
20180424001605 58 22 3.0 3.0 0.01 0.05 0.01 100 1017.0
20180424001106 58 22 3.0 3.0 0.01 0.05 0.01 100 1016.0
20180424000605 58 22 3.0 5.0 0.01 0.05 0.01 100 1016.0
20180424000105 58 22 3.0 5.0 0.01 0.05 0.01 100 1016.0
20180423235606 58 11 3.0 5.0 0.01 0.05 0.01 100 1016.0
20180423235105 58 2 2.0 5.0 0.00 0.05 0.00 100 1016.0
20180423234606 59 21 2.0 5.0 0.00 0.05 0.00 100 1016.0
20180423234105 59 8 3.0 3.0 0.00 0.05 0.00 100 1016.0
20180423233605 60 350 3.0 3.0 0.00 0.05 0.00 100 1016.0
20180423233105 61 322 3.0 5.0 0.00 0.05 0.00 100 1016.0
20180423232605 61 271 3.0 7.0 0.00 0.05 0.00 100 1016.0
20180423232106 61 252 4.0 5.0 0.00 0.05 0.00 100 1016.0
20180423231606 61 263 4.0 6.0 0.00 0.05 0.00 100 1016.0
20180423231105 61 271 3.0 6.0 0.00 0.05 0.00 100 1016.0
20180423230605 61 292 3.0 6.0 0.00 0.05 0.00 100 1016.0
20180423230105 61 280 3.0 6.0 0.00 0.05 0.00 100 1016.0
20180423225605 61 265 2.0 5.0 0.00 0.05 0.00 100 1016.0
20180423225106 60 270 4.0 7.0 0.00 0.05 0.00 100 1016.0
20180423224605 60 252 3.0 5.0 0.00 0.05 0.00 100 1016.0
20180423224105 60 255 2.0 2.0 0.00 0.05 0.00 100 1016.0
20180423223608 60 22 0.0 0.0 0.00 0.05 0.00 100 1016.0
20180423223105 60 22 0.0 0.0 0.00 0.05 0.00 100 1016.0
20180423222605 60 22 0.0 2.0 0.00 0.05 0.00 100 1016.0
20180423222105 60 22 2.0 2.0 0.00 0.05 0.00 100 1016.0
20180423221605 60 22 2.0 3.0 0.00 0.05 0.00 100 1016.0
20180423221107 60 31 2.0 3.0 0.00 0.05 0.00 100 1015.0
20180423220605 60 32 1.0 3.0 0.00 0.05 0.00 100 1015.0
20180423220106 60 40 2.0 5.0 0.00 0.05 0.00 100 1015.0
20180423215605 60 22 1.0 5.0 0.00 0.05 0.05 100 1014.0
20180423215105 60 49 2.0 5.0 0.00 0.05 0.05 100 1014.0
20180423214605 60 32 4.0 5.0 0.00 0.05 0.05 100 1014.0
20180423214106 61 34 5.0 7.0 0.00 0.05 0.05 100 1015.0
20180423213605 61 63 3.0 6.0 0.00 0.05 0.05 100 1015.0
20180423213105 61 248 0.0 1.0 0.00 0.05 0.05 100 1015.0
20180423212606 61 22 0.0 3.0 0.00 0.05 0.05 100 1015.0
20180423212106 61 22 2.0 3.0 0.00 0.05 0.05 100 1015.0
20180423211605 61 45 2.0 3.0 0.00 0.05 0.05 100 1015.0
20180423211105 61 45 3.0 3.0 0.00 0.05 0.05 100 1014.0
20180423210605 61 112 2.0 5.0 0.00 0.05 0.05 100 1014.0
20180423210106 61 22 0.0 1.0 0.00 0.05 0.05 100 1014.0
20180423205605 61 22 1.0 2.0 0.00 0.05 0.05 100 1013.0
20180423205105 61 22 0.0 2.0 0.00 0.05 0.05 100 1013.0
20180423204606 61 22 0.0 1.0 0.00 0.05 0.05 100 1013.0
20180423204105 61 22 1.0 2.0 0.00 0.05 0.05 100 1013.0
20180423203605 61 22 1.0 2.0 0.00 0.05 0.05 100 1013.0
20180423203105 61 22 1.0 3.0 0.00 0.05 0.05 100 1013.0
20180423202606 61 0 2.0 3.0 0.00 0.05 0.05 100 1013.0
20180423202106 62 22 2.0 3.0 0.00 0.05 0.05 100 1013.0
20180423201605 62 7 0.0 2.0 0.00 0.05 0.05 100 1013.0
20180423201106 62 348 0.0 3.0 0.00 0.05 0.05 100 1013.0
20180423200605 63 300 4.0 5.0 0.00 0.05 0.05 100 1013.0
20180423200106 63 338 2.0 5.0 0.00 0.05 0.05 100 1013.0
20180423195605 64 292 5.0 7.0 0.00 0.05 0.05 100 1012.0
20180423195105 64 292 6.0 9.0 0.00 0.05 0.05 100 1012.0
20180423194605 65 292 4.0 7.0 0.00 0.05 0.05 100 1012.0
20180423194105 65 158 1.0 2.0 0.00 0.05 0.05 100 1012.0
20180423193605 65 135 0.0 1.0 0.00 0.05 0.05 100 1012.0
20180423193106 65 116 1.0 3.0 0.00 0.05 0.05 100 1012.0
20180423192606 65 45 0.0 5.0 0.00 0.05 0.05 100 1013.0
20180423192106 65 68 0.0 1.0 0.00 0.05 0.05 100 1013.0
20180423191606 65 37 0.0 1.0 0.00 0.05 0.05 100 1013.0
20180423191105 65 0 1.0 2.0 0.00 0.05 0.05 100 1013.0
20180423190606 65 24 1.0 5.0 0.00 0.05 0.05 100 1013.0
20180423190105 65 0 4.0 7.0 0.00 0.05 0.05 100 1013.0
20180423185605 65 356 4.0 6.0 0.00 0.05 0.05 100 1012.0
20180423185105 66 3 7.0 12.0 0.00 0.05 0.05 100 1012.0
20180423184605 66 13 4.0 7.0 0.00 0.05 0.05 100 1012.0
20180423184105 66 12 4.0 7.0 0.00 0.05 0.05 100 1013.0
20180423183605 66 22 7.0 12.0 0.00 0.05 0.05 100 1013.0
20180423183106 67 10 6.0 14.0 0.00 0.05 0.05 100 1013.0
20180423182605 67 8 9.0 14.0 0.00 0.05 0.05 100 1013.0
20180423182105 67 19 10.0 15.0 0.00 0.05 0.05 100 1013.0
20180423181605 67 339 9.0 20.0 0.00 0.05 0.05 100 1013.0
20180423181105 67 342 14.0 20.0 0.00 0.05 0.05 100 1012.0
20180423180605 68 333 14.0 20.0 0.00 0.05 0.05 100 1012.0
20180423180105 69 332 14.0 24.0 0.00 0.05 0.05 100 1012.0
20180423175606 70 343 5.0 10.0 0.00 0.05 0.05 100 1011.1
20180423175105 71 351 3.0 5.0 0.00 0.05 0.05 100 1011.0
20180423174606 71 12 5.0 6.0 0.00 0.05 0.05 100 1011.0
20180423174105 71 355 4.0 7.0 0.00 0.05 0.05 100 1010.0
20180423173606 71 348 5.0 7.0 0.00 0.05 0.05 100 1010.0
20180423173105 72 359 5.0 10.0 0.00 0.05 0.05 100 1010.0
20180423172605 72 349 5.0 10.0 0.00 0.05 0.05 100 1011.0
20180423172105 73 343 5.0 9.0 0.00 0.05 0.05 100 1011.0
20180423171605 73 0 2.0 3.0 0.00 0.05 0.05 100 1011.0
20180423171107 73 340 2.0 5.0 0.00 0.05 0.05 100 1011.0
20180423170605 74 0 2.0 3.0 0.00 0.05 0.05 100 1011.0
20180423170106 74 352 3.0 5.0 0.00 0.05 0.05 100 1011.0
20180423165605 74 348 2.0 5.0 0.00 0.05 0.05 100 1011.0
20180423165105 75 338 3.0 5.0 0.00 0.05 0.05 100 1011.0
20180423164605 75 343 2.0 3.0 0.00 0.05 0.05 100 1011.0
20180423164106 76 353 3.0 3.0 0.00 0.05 0.05 100 1011.0
20180423163605 77 353 3.0 5.0 0.00 0.05 0.05 100 1011.0
20180423163105 78 340 3.0 5.0 0.00 0.05 0.05 100 1011.0
20180423162605 78 346 2.0 3.0 0.00 0.05 0.05 100 1011.0
20180423162105 79 333 2.0 3.0 0.00 0.05 0.05 100 1011.0
20180423161605 79 307 1.0 3.0 0.00 0.05 0.05 100 1011.0
20180423161105 79 312 2.0 3.0 0.00 0.05 0.05 100 1011.0
20180423160605 79 292 3.0 5.0 0.00 0.05 0.05 100 1011.0
20180423160106 79 326 3.0 5.0 0.00 0.05 0.05 100 1011.0
20180423155605 80 338 2.0 5.0 0.00 0.05 0.05 100 1011.0
20180423155105 79 338 3.0 5.0 0.00 0.05 0.05 100 1011.0
20180423154605 79 301 3.0 6.0 0.00 0.05 0.05 100 1011.0
20180423154105 80 325 5.0 7.0 0.00 0.05 0.05 100 1011.0
20180423153605 80 313 3.0 7.0 0.00 0.05 0.05 100 1011.0
20180423153106 80 305 3.0 7.0 0.00 0.05 0.05 100 1011.0
20180423152605 80 298 3.0 6.0 0.00 0.05 0.05 100 1011.0
20180423152105 79 268 3.0 7.0 0.00 0.05 0.05 100 1011.0
20180423151605 79 332 5.0 7.0 0.00 0.05 0.05 100 1011.0
20180423151105 79 320 5.0 7.0 0.00 0.05 0.05 100 1011.0
20180423150605 80 302 5.0 10.0 0.00 0.05 0.05 100 1011.0
20180423150105 80 300 5.0 9.0 0.00 0.05 0.05 100 1011.0
20180423145605 80 321 6.0 9.0 0.00 0.05 0.05 100 1010.0
20180423145105 81 332 3.0 6.0 0.00 0.05 0.05 100 1010.0
20180423144605 81 11 3.0 5.0 0.00 0.05 0.05 100 1010.0
20180423144105 81 338 3.0 5.0 0.00 0.05 0.05 100 1011.0
20180423143604 81 288 5.0 9.0 0.00 0.05 0.05 100 1011.0
20180423143105 81 329 6.0 8.0 0.00 0.05 0.05 100 1011.0
20180423142605 81 322 5.0 7.0 0.00 0.05 0.05 100 1011.0
20180423142105 80 290 3.0 6.0 0.00 0.05 0.05 100 1011.0
20180423141606 79 342 3.0 6.0 0.00 0.05 0.05 100 1011.0
20180423141105 79 341 5.0 7.0 0.00 0.05 0.05 100 1011.0
20180423140605 79 298 3.0 7.0 0.00 0.05 0.05 100 1011.0
20180423140105 79 354 4.0 7.0 0.00 0.05 0.05 100 1011.0
20180423135605 80 333 6.0 10.0 0.00 0.05 0.05 100 1011.0
20180423135105 81 339 5.0 7.0 0.00 0.05 0.05 100 1011.0
20180423134605 81 343 4.0 7.0 0.00 0.05 0.05 100 1011.0
20180423134105 81 310 3.0 5.0 0.00 0.05 0.05 100 1011.0
20180423133605 80 302 3.0 7.0 0.00 0.05 0.05 100 1011.0
20180423133105 80 296 7.0 10.0 0.00 0.05 0.05 100 1011.0
20180423132605 81 319 3.0 13.0 0.00 0.05 0.05 100 1011.0
20180423132105 81 354 3.0 7.0 0.00 0.05 0.05 100 1011.0
20180423131605 80 355 4.0 7.0 0.00 0.05 0.05 100 1011.0
20180423131105 79 356 4.0 7.0 0.00 0.05 0.05 100 1012.0
20180423130605 79 316 7.0 10.0 0.00 0.05 0.05 100 1012.0
20180423130105 81 347 7.0 10.0 0.00 0.05 0.05 100 1012.0
20180423125606 81 322 5.0 9.0 0.00 0.05 0.05 100 1010.1
20180423125105 81 74 2.0 7.0 0.00 0.05 0.05 100 1010.0
20180423124605 81 328 6.0 12.0 0.00 0.05 0.05 100 1010.0
20180423124105 81 7 5.0 7.0 0.00 0.05 0.05 100 1010.0
20180423123605 81 324 5.0 14.0 0.00 0.05 0.05 100 1010.0
20180423123105 80 302 6.0 14.0 0.00 0.05 0.05 100 1010.0
20180423122605 81 288 5.0 13.0 0.00 0.05 0.05 100 1011.0
20180423122105 80 299 8.0 15.0 0.00 0.05 0.05 100 1011.0
20180423121606 81 296 4.0 12.0 0.00 0.05 0.05 100 1011.0
20180423121105 81 318 6.0 9.0 0.00 0.05 0.05 100 1011.0
20180423120605 81 324 5.0 13.0 0.00 0.05 0.05 100 1011.0
20180423120105 80 343 9.0 12.0 0.00 0.05 0.05 100 1011.0
20180423115605 81 315 9.0 12.0 0.00 0.05 0.05 100 1012.0
20180423115104 80 338 4.0 10.0 0.00 0.05 0.05 100 1012.0
20180423114604 79 283 8.0 15.0 0.00 0.05 0.05 100 1012.0
20180423114105 79 296 8.0 15.0 0.00 0.05 0.05 100 1013.0
20180423113605 79 314 8.0 13.0 0.00 0.05 0.05 100 1013.0
20180423113105 79 290 6.0 13.0 0.00 0.05 0.05 100 1013.0
20180423112606 79 324 4.0 9.0 0.00 0.05 0.05 100 1013.0
20180423112105 79 317 7.0 12.0 0.00 0.05 0.05 100 1013.0
20180423111605 79 323 6.0 12.0 0.00 0.05 0.05 100 1013.0
20180423111105 79 340 4.0 7.0 0.00 0.05 0.05 100 1013.0
20180423110605 78 18 3.0 7.0 0.00 0.05 0.05 100 1013.0
20180423110105 78 7 4.0 9.0 0.00 0.05 0.05 100 1013.0
20180423105605 78 343 4.0 7.0 0.00 0.05 0.05 100 1013.0
20180423105105 77 4 4.0 12.0 0.00 0.05 0.05 100 1013.0
20180423104605 77 350 5.0 9.0 0.00 0.05 0.05 100 1013.0
20180423104104 77 342 3.0 12.0 0.00 0.05 0.05 100 1014.0
20180423103605 77 347 7.0 10.0 0.00 0.05 0.05 100 1014.0